Home > Weather > Bloomington > Past weeks

Flag for U.S.A. Weather for the Past 2 Weeks in Bloomington, Illinois, U.S.A.

Now
19 °F

Passing clouds.


Feels Like: 9 °F
Forecast: 7 / 20 °F
Wind: 8 mph from West

Location: Bloomington / Normal

Current Time: Feb 10, 2016 at 6:49:37 PM

Latest Report: Feb 10, 2016 at 5:56 PM


Visibility: 10 mi

Pressure: 30.19 "Hg

Humidity: 54%

Dew point: 5 °F

Location of BloomingtonLocation

Historic Weather in Bloomington — Graph

°F

Bloomington Temperature Yesterday

Maximum temperature yesterday: 18 °F (at 12:56 AM)
Minimum temperature yesterday: 12 °F (at 11:56 PM)
Average temperature yesterday: 16 °F

High & Low Weather Summary for the Past Weeks

 TemperatureHumidityPressure
High58 °F (Jan 31, 12:56 PM)100% (Jan 30, 6:56 PM)30.46 "Hg (Jan 30, 6:56 PM)
Low7 °F (Feb 10, 6:56 AM)46% (Feb 1, 2:56 PM)29.46 "Hg (Feb 2, 6:56 PM)
Average32 °F82%29.99 "Hg
* Reported Jan 26 4:56 PM — Feb 10 4:56 PM, Bloomington, Weather by CustomWeather, © 2016

Note: Actual official high and low records may vary slightly from our data, if they occured in-between our weather recording intervals... More about our weather records

Advertising

Bloomington Weather History for the Previous 24 Hours

 ConditionsComfort  
Time TempWeatherWind HumidityBarometerVisibility
4:56 PM
Wed, Feb 10
19 °FBroken clouds.9 mph54%30.17 "Hg10 mi
3:56 PM20 °FOvercast.10 mph54%30.15 "Hg10 mi
2:56 PM20 °FPartly sunny.12 mph52%30.14 "Hg10 mi
1:56 PM20 °FPassing clouds.10 mph50%30.13 "Hg10 mi
12:56 PM19 °FSunny.14 mph54%30.14 "Hg10 mi
11:56 AM17 °FSunny.14 mph56%30.17 "Hg10 mi
10:56 AM16 °FSunny.15 mph56%30.17 "Hg10 mi
9:56 AM13 °FSunny.12 mph61%30.18 "Hg10 mi
8:56 AM11 °FSunny.13 mph70%30.19 "Hg10 mi
7:56 AM10 °FSunny.13 mph70%30.17 "Hg10 mi
6:56 AM7 °FSunny.14 mph79%30.16 "Hg10 mi
5:56 AM8 °FClear.12 mph76%30.15 "Hg10 mi
4:56 AM8 °FClear.12 mph76%30.14 "Hg10 mi
3:56 AM9 °FClear.14 mph76%30.13 "Hg10 mi
2:56 AM10 °FClear.12 mph73%30.11 "Hg10 mi
1:56 AM10 °FClear.15 mph77%30.11 "Hg10 mi
12:56 AM10 °FClear.17 mph77%30.11 "Hg10 mi
11:56 PM
Tue, Feb 9
12 °FPassing clouds.16 mph70%30.11 "Hg10 mi
10:56 PM14 °FOvercast.18 mph67%30.10 "Hg10 mi
9:56 PM14 °FOvercast.21 mph74%30.10 "Hg10 mi
8:56 PM14 °FLight snow. Overcast.15 mph81%30.10 "Hg9 mi
7:56 PM15 °FLight snow. Mostly cloudy.18 mph74%30.09 "Hg10 mi
6:56 PM16 °FLight snow. Mostly cloudy.20 mph73%30.09 "Hg6 mi
Weather by CustomWeather, © 2016

See weather overviewHow to use our weather pages